Data supplied by UK-AIR on 31/3/2022
All Data GMT hour ending 
Status: R =Ratified P=Provisional,P*=As supplied
,,Lough Navar,,,,,,,,,,,,,,,,,,,,,,,
Date,time,"PM<sub>10</sub> particulate matter (Hourly measured)",status,unit,"Ozone",status,unit,"PM<sub>2.5</sub> particulate matter (Hourly measured)",status,unit
 
01-01-2021,01:00,6.950,R,ugm-3 (FIDAS),50.75730,R,ugm-3,3.349,R,ugm-3 (Ref.eq)
01-01-2021,02:00,5.200,R,ugm-3 (FIDAS),52.15429,R,ugm-3,2.406,R,ugm-3 (Ref.eq)
01-01-2021,03:00,6.100,R,ugm-3 (FIDAS),37.86841,R,ugm-3,3.656,R,ugm-3 (Ref.eq)
01-01-2021,04:00,5.150,R,ugm-3 (FIDAS),34.52561,R,ugm-3,2.241,R,ugm-3 (Ref.eq)
01-01-2021,05:00,4.025,R,ugm-3 (FIDAS),29.53636,R,ugm-3,2.052,R,ugm-3 (Ref.eq)
01-01-2021,06:00,4.900,R,ugm-3 (FIDAS),37.41938,R,ugm-3,2.123,R,ugm-3 (Ref.eq)
01-01-2021,07:00,4.175,R,ugm-3 (FIDAS),26.69249,R,ugm-3,2.028,R,ugm-3 (Ref.eq)
01-01-2021,08:00,3.900,R,ugm-3 (FIDAS),18.31055,R,ugm-3,1.745,R,ugm-3 (Ref.eq)
01-01-2021,09:00,4.700,R,ugm-3 (FIDAS),32.48002,R,ugm-3,2.075,R,ugm-3 (Ref.eq)
01-01-2021,10:00,3.550,R,ugm-3 (FIDAS),27.44088,R,ugm-3,1.627,R,ugm-3 (Ref.eq)
01-01-2021,11:00,3.600,R,ugm-3 (FIDAS),23.15012,R,ugm-3,1.675,R,ugm-3 (Ref.eq)
01-01-2021,12:00,3.775,R,ugm-3 (FIDAS),21.50367,R,ugm-3,1.627,R,ugm-3 (Ref.eq)
01-01-2021,13:00,5.900,R,ugm-3 (FIDAS),39.01594,R,ugm-3,3.467,R,ugm-3 (Ref.eq)
01-01-2021,14:00,4.225,R,ugm-3 (FIDAS),51.83831,R,ugm-3,1.816,R,ugm-3 (Ref.eq)
01-01-2021,15:00,4.675,R,ugm-3 (FIDAS),53.63444,R,ugm-3,2.170,R,ugm-3 (Ref.eq)
01-01-2021,16:00,5.825,R,ugm-3 (FIDAS),46.94884,R,ugm-3,2.524,R,ugm-3 (Ref.eq)
01-01-2021,17:00,6.300,R,ugm-3 (FIDAS),19.60775,R,ugm-3,3.561,R,ugm-3 (Ref.eq)
01-01-2021,18:00,10.825,R,ugm-3 (FIDAS),19.20861,R,ugm-3,7.830,R,ugm-3 (Ref.eq)
01-01-2021,19:00,8.850,R,ugm-3 (FIDAS),17.96130,R,ugm-3,6.910,R,ugm-3 (Ref.eq)
01-01-2021,20:00,9.725,R,ugm-3 (FIDAS),15.16732,R,ugm-3,7.948,R,ugm-3 (Ref.eq)
01-01-2021,21:00,7.925,R,ugm-3 (FIDAS),16.21506,R,ugm-3,6.203,R,ugm-3 (Ref.eq)
01-01-2021,22:00,12.000,R,ugm-3 (FIDAS),17.96130,R,ugm-3,10.236,R,ugm-3 (Ref.eq)
01-01-2021,23:00,6.500,R,ugm-3 (FIDAS),17.66195,R,ugm-3,5.118,R,ugm-3 (Ref.eq)
01-01-2021,24:00,5.075,R,ugm-3 (FIDAS),21.30410,R,ugm-3,3.656,R,ugm-3 (Ref.eq)
02-01-2021,01:00,3.775,R,ugm-3 (FIDAS),17.29607,R,ugm-3,2.406,R,ugm-3 (Ref.eq)
02-01-2021,02:00,3.150,R,ugm-3 (FIDAS),17.56216,R,ugm-3,2.075,R,ugm-3 (Ref.eq)
02-01-2021,03:00,1.975,R,ugm-3 (FIDAS),22.40173,R,ugm-3,1.061,R,ugm-3 (Ref.eq)
02-01-2021,04:00,3.050,R,ugm-3 (FIDAS),47.44777,R,ugm-3,1.321,R,ugm-3 (Ref.eq)
02-01-2021,05:00,3.100,R,ugm-3 (FIDAS),62.41552,R,ugm-3,1.297,R,ugm-3 (Ref.eq)
02-01-2021,06:00,1.600,R,ugm-3 (FIDAS),65.25939,R,ugm-3,0.731,R,ugm-3 (Ref.eq)
02-01-2021,07:00,1.625,R,ugm-3 (FIDAS),58.77337,R,ugm-3,0.825,R,ugm-3 (Ref.eq)
02-01-2021,08:00,1.700,R,ugm-3 (FIDAS),48.24605,R,ugm-3,0.778,R,ugm-3 (Ref.eq)
02-01-2021,09:00,2.275,R,ugm-3 (FIDAS),16.86367,R,ugm-3,1.651,R,ugm-3 (Ref.eq)
02-01-2021,10:00,1.925,R,ugm-3 (FIDAS),9.62925,R,ugm-3,1.061,R,ugm-3 (Ref.eq)
02-01-2021,11:00,1.100,R,ugm-3 (FIDAS),12.62280,R,ugm-3,0.519,R,ugm-3 (Ref.eq)
02-01-2021,12:00,4.275,R,ugm-3 (FIDAS),39.66454,R,ugm-3,2.854,R,ugm-3 (Ref.eq)
02-01-2021,13:00,3.150,R,ugm-3 (FIDAS),55.82971,R,ugm-3,1.509,R,ugm-3 (Ref.eq)
02-01-2021,14:00,2.900,R,ugm-3 (FIDAS),56.22885,R,ugm-3,1.392,R,ugm-3 (Ref.eq)
02-01-2021,15:00,2.525,R,ugm-3 (FIDAS),65.80821,R,ugm-3,1.203,R,ugm-3 (Ref.eq)
02-01-2021,16:00,3.525,R,ugm-3 (FIDAS),58.72347,R,ugm-3,1.368,R,ugm-3 (Ref.eq)
02-01-2021,17:00,3.500,R,ugm-3 (FIDAS),39.71443,R,ugm-3,1.580,R,ugm-3 (Ref.eq)
02-01-2021,18:00,3.375,R,ugm-3 (FIDAS),18.70969,R,ugm-3,2.193,R,ugm-3 (Ref.eq)
02-01-2021,19:00,3.375,R,ugm-3 (FIDAS),36.37163,R,ugm-3,1.698,R,ugm-3 (Ref.eq)
02-01-2021,20:00,4.800,R,ugm-3 (FIDAS),37.31959,R,ugm-3,3.113,R,ugm-3 (Ref.eq)
02-01-2021,21:00,10.050,R,ugm-3 (FIDAS),22.15227,R,ugm-3,8.160,R,ugm-3 (Ref.eq)
02-01-2021,22:00,5.450,R,ugm-3 (FIDAS),18.95915,R,ugm-3,4.009,R,ugm-3 (Ref.eq)
02-01-2021,23:00,3.175,R,ugm-3 (FIDAS),30.68389,R,ugm-3,1.792,R,ugm-3 (Ref.eq)
02-01-2021,24:00,3.925,R,ugm-3 (FIDAS),31.88131,R,ugm-3,2.429,R,ugm-3 (Ref.eq)
03-01-2021,01:00,3.325,R,ugm-3 (FIDAS),38.11787,R,ugm-3,1.769,R,ugm-3 (Ref.eq)
03-01-2021,02:00,2.950,R,ugm-3 (FIDAS),23.74883,R,ugm-3,1.580,R,ugm-3 (Ref.eq)
03-01-2021,03:00,2.775,R,ugm-3 (FIDAS),23.29980,R,ugm-3,1.439,R,ugm-3 (Ref.eq)
03-01-2021,04:00,2.625,R,ugm-3 (FIDAS),23.94840,R,ugm-3,1.439,R,ugm-3 (Ref.eq)
03-01-2021,05:00,2.475,R,ugm-3 (FIDAS),20.35614,R,ugm-3,1.392,R,ugm-3 (Ref.eq)
03-01-2021,06:00,2.375,R,ugm-3 (FIDAS),19.80732,R,ugm-3,1.274,R,ugm-3 (Ref.eq)
03-01-2021,07:00,2.000,R,ugm-3 (FIDAS),20.75528,R,ugm-3,1.156,R,ugm-3 (Ref.eq)
03-01-2021,08:00,2.000,R,ugm-3 (FIDAS),25.04604,R,ugm-3,1.132,R,ugm-3 (Ref.eq)
03-01-2021,09:00,2.550,R,ugm-3 (FIDAS),21.70324,R,ugm-3,1.109,R,ugm-3 (Ref.eq)
03-01-2021,10:00,1.725,R,ugm-3 (FIDAS),20.10668,R,ugm-3,0.920,R,ugm-3 (Ref.eq)
03-01-2021,11:00,2.925,R,ugm-3 (FIDAS),35.82282,R,ugm-3,1.085,R,ugm-3 (Ref.eq)
03-01-2021,12:00,2.975,R,ugm-3 (FIDAS),59.42197,R,ugm-3,1.203,R,ugm-3 (Ref.eq)
03-01-2021,13:00,3.450,R,ugm-3 (FIDAS),55.48046,R,ugm-3,1.297,R,ugm-3 (Ref.eq)
03-01-2021,14:00,4.850,R,ugm-3 (FIDAS),59.52175,R,ugm-3,2.146,R,ugm-3 (Ref.eq)
03-01-2021,15:00,4.150,R,ugm-3 (FIDAS),56.77767,R,ugm-3,2.052,R,ugm-3 (Ref.eq)
03-01-2021,16:00,4.625,R,ugm-3 (FIDAS),42.20906,R,ugm-3,2.476,R,ugm-3 (Ref.eq)
03-01-2021,17:00,16.425,R,ugm-3 (FIDAS),19.30840,R,ugm-3,14.293,R,ugm-3 (Ref.eq)
03-01-2021,18:00,13.575,R,ugm-3 (FIDAS),14.16947,R,ugm-3,12.052,R,ugm-3 (Ref.eq)
03-01-2021,19:00,14.750,R,ugm-3 (FIDAS),16.81377,R,ugm-3,13.160,R,ugm-3 (Ref.eq)
03-01-2021,20:00,4.600,R,ugm-3 (FIDAS),37.96819,R,ugm-3,3.373,R,ugm-3 (Ref.eq)
03-01-2021,21:00,6.075,R,ugm-3 (FIDAS),16.01549,R,ugm-3,5.142,R,ugm-3 (Ref.eq)
03-01-2021,22:00,6.600,R,ugm-3 (FIDAS),12.47313,R,ugm-3,5.566,R,ugm-3 (Ref.eq)
03-01-2021,23:00,4.550,R,ugm-3 (FIDAS),14.06969,R,ugm-3,3.679,R,ugm-3 (Ref.eq)
03-01-2021,24:00,6.050,R,ugm-3 (FIDAS),11.72474,R,ugm-3,5.118,R,ugm-3 (Ref.eq)
04-01-2021,01:00,3.825,R,ugm-3 (FIDAS),14.36904,R,ugm-3,2.877,R,ugm-3 (Ref.eq)
04-01-2021,02:00,5.875,R,ugm-3 (FIDAS),35.25737,R,ugm-3,4.599,R,ugm-3 (Ref.eq)
04-01-2021,03:00,6.150,R,ugm-3 (FIDAS),22.05249,R,ugm-3,5.142,R,ugm-3 (Ref.eq)
04-01-2021,04:00,5.200,R,ugm-3 (FIDAS),14.21936,R,ugm-3,4.410,R,ugm-3 (Ref.eq)
04-01-2021,05:00,4.925,R,ugm-3 (FIDAS),12.27356,R,ugm-3,4.316,R,ugm-3 (Ref.eq)
04-01-2021,06:00,5.025,R,ugm-3 (FIDAS),12.47313,R,ugm-3,3.939,R,ugm-3 (Ref.eq)
04-01-2021,07:00,5.300,R,ugm-3 (FIDAS),35.07443,R,ugm-3,3.797,R,ugm-3 (Ref.eq)
04-01-2021,08:00,5.075,R,ugm-3 (FIDAS),40.01379,R,ugm-3,3.184,R,ugm-3 (Ref.eq)
04-01-2021,09:00,4.200,R,ugm-3 (FIDAS),40.21336,R,ugm-3,2.830,R,ugm-3 (Ref.eq)
04-01-2021,10:00,3.725,R,ugm-3 (FIDAS),39.81422,R,ugm-3,2.547,R,ugm-3 (Ref.eq)
04-01-2021,11:00,3.575,R,ugm-3 (FIDAS),39.36518,R,ugm-3,2.311,R,ugm-3 (Ref.eq)
04-01-2021,12:00,3.875,R,ugm-3 (FIDAS),41.71013,R,ugm-3,2.241,R,ugm-3 (Ref.eq)
04-01-2021,13:00,3.900,R,ugm-3 (FIDAS),41.56045,R,ugm-3,2.311,R,ugm-3 (Ref.eq)
04-01-2021,14:00,4.550,R,ugm-3 (FIDAS),41.56045,R,ugm-3,2.854,R,ugm-3 (Ref.eq)
04-01-2021,15:00,5.150,R,ugm-3 (FIDAS),40.21336,R,ugm-3,3.137,R,ugm-3 (Ref.eq)
04-01-2021,16:00,5.175,R,ugm-3 (FIDAS),39.81422,R,ugm-3,3.137,R,ugm-3 (Ref.eq)
04-01-2021,17:00,5.200,R,ugm-3 (FIDAS),40.11357,R,ugm-3,3.349,R,ugm-3 (Ref.eq)
04-01-2021,18:00,8.550,R,ugm-3 (FIDAS),40.46282,R,ugm-3,5.778,R,ugm-3 (Ref.eq)
04-01-2021,19:00,11.875,R,ugm-3 (FIDAS),39.96389,R,ugm-3,8.844,R,ugm-3 (Ref.eq)
04-01-2021,20:00,11.300,R,ugm-3 (FIDAS),39.26540,R,ugm-3,8.326,R,ugm-3 (Ref.eq)
04-01-2021,21:00,10.475,R,ugm-3 (FIDAS),38.96604,R,ugm-3,8.066,R,ugm-3 (Ref.eq)
04-01-2021,22:00,7.425,R,ugm-3 (FIDAS),43.50626,R,ugm-3,5.684,R,ugm-3 (Ref.eq)
04-01-2021,23:00,7.900,R,ugm-3 (FIDAS),42.90755,R,ugm-3,5.920,R,ugm-3 (Ref.eq)
04-01-2021,24:00,8.150,R,ugm-3 (FIDAS),43.05723,R,ugm-3,6.415,R,ugm-3 (Ref.eq)
05-01-2021,01:00,6.625,R,ugm-3 (FIDAS),45.16934,R,ugm-3,5.189,R,ugm-3 (Ref.eq)
05-01-2021,02:00,4.875,R,ugm-3 (FIDAS),48.02985,R,ugm-3,3.278,R,ugm-3 (Ref.eq)
05-01-2021,03:00,4.875,R,ugm-3 (FIDAS),46.64949,R,ugm-3,3.255,R,ugm-3 (Ref.eq)
05-01-2021,04:00,4.050,R,ugm-3 (FIDAS),48.44562,R,ugm-3,2.901,R,ugm-3 (Ref.eq)
05-01-2021,05:00,3.800,R,ugm-3 (FIDAS),45.25250,R,ugm-3,2.476,R,ugm-3 (Ref.eq)
05-01-2021,06:00,3.225,R,ugm-3 (FIDAS),26.99184,R,ugm-3,2.382,R,ugm-3 (Ref.eq)
05-01-2021,07:00,2.975,R,ugm-3 (FIDAS),15.96560,R,ugm-3,2.359,R,ugm-3 (Ref.eq)
05-01-2021,08:00,2.875,R,ugm-3 (FIDAS),26.49292,R,ugm-3,2.028,R,ugm-3 (Ref.eq)
05-01-2021,09:00,2.650,R,ugm-3 (FIDAS),26.99184,R,ugm-3,1.651,R,ugm-3 (Ref.eq)
05-01-2021,10:00,2.350,R,ugm-3 (FIDAS),27.54066,R,ugm-3,1.533,R,ugm-3 (Ref.eq)
05-01-2021,11:00,2.500,R,ugm-3 (FIDAS),49.59315,R,ugm-3,1.297,R,ugm-3 (Ref.eq)
05-01-2021,12:00,3.150,R,ugm-3 (FIDAS),51.38928,R,ugm-3,1.415,R,ugm-3 (Ref.eq)
05-01-2021,13:00,2.750,R,ugm-3 (FIDAS),49.34368,R,ugm-3,1.509,R,ugm-3 (Ref.eq)
05-01-2021,14:00,8.775,R,ugm-3 (FIDAS),48.69508,R,ugm-3,7.217,R,ugm-3 (Ref.eq)
05-01-2021,15:00,6.075,R,ugm-3 (FIDAS),43.20691,R,ugm-3,4.151,R,ugm-3 (Ref.eq)
05-01-2021,16:00,4.900,R,ugm-3 (FIDAS),42.55830,R,ugm-3,3.467,R,ugm-3 (Ref.eq)
05-01-2021,17:00,3.850,R,ugm-3 (FIDAS),36.12217,R,ugm-3,2.712,R,ugm-3 (Ref.eq)
05-01-2021,18:00,8.350,R,ugm-3 (FIDAS),14.21936,R,ugm-3,7.382,R,ugm-3 (Ref.eq)
05-01-2021,19:00,19.150,R,ugm-3 (FIDAS),9.32990,R,ugm-3,17.594,R,ugm-3 (Ref.eq)
05-01-2021,20:00,12.850,R,ugm-3 (FIDAS),4.88947,R,ugm-3,11.250,R,ugm-3 (Ref.eq)
05-01-2021,21:00,24.250,R,ugm-3 (FIDAS),11.37549,R,ugm-3,22.335,R,ugm-3 (Ref.eq)
05-01-2021,22:00,16.150,R,ugm-3 (FIDAS),10.82667,R,ugm-3,14.599,R,ugm-3 (Ref.eq)
05-01-2021,23:00,8.525,R,ugm-3 (FIDAS),9.67915,R,ugm-3,7.500,R,ugm-3 (Ref.eq)
05-01-2021,24:00,6.375,R,ugm-3 (FIDAS),14.66840,R,ugm-3,5.613,R,ugm-3 (Ref.eq)
06-01-2021,01:00,4.575,R,ugm-3 (FIDAS),14.03642,R,ugm-3,3.821,R,ugm-3 (Ref.eq)
06-01-2021,02:00,3.600,R,ugm-3 (FIDAS),12.83900,R,ugm-3,2.995,R,ugm-3 (Ref.eq)
06-01-2021,03:00,3.275,R,ugm-3 (FIDAS),10.12818,R,ugm-3,2.759,R,ugm-3 (Ref.eq)
06-01-2021,04:00,2.925,R,ugm-3 (FIDAS),10.47743,R,ugm-3,2.217,R,ugm-3 (Ref.eq)
06-01-2021,05:00,2.200,R,ugm-3 (FIDAS),8.33205,R,ugm-3,1.792,R,ugm-3 (Ref.eq)
06-01-2021,06:00,2.325,R,ugm-3 (FIDAS),8.13248,R,ugm-3,1.651,R,ugm-3 (Ref.eq)
06-01-2021,07:00,2.275,R,ugm-3 (FIDAS),14.21936,R,ugm-3,1.580,R,ugm-3 (Ref.eq)
06-01-2021,08:00,1.650,R,ugm-3 (FIDAS),12.32345,R,ugm-3,1.274,R,ugm-3 (Ref.eq)
06-01-2021,09:00,1.750,R,ugm-3 (FIDAS),4.04129,R,ugm-3,1.132,R,ugm-3 (Ref.eq)
06-01-2021,10:00,1.200,R,ugm-3 (FIDAS),5.78753,R,ugm-3,0.943,R,ugm-3 (Ref.eq)
06-01-2021,11:00,1.150,R,ugm-3 (FIDAS),3.89162,R,ugm-3,0.825,R,ugm-3 (Ref.eq)
06-01-2021,12:00,0.925,R,ugm-3 (FIDAS),5.08904,R,ugm-3,0.708,R,ugm-3 (Ref.eq)
06-01-2021,13:00,1.025,R,ugm-3 (FIDAS),11.07614,R,ugm-3,0.708,R,ugm-3 (Ref.eq)
06-01-2021,14:00,0.875,R,ugm-3 (FIDAS),20.15657,R,ugm-3,0.590,R,ugm-3 (Ref.eq)
06-01-2021,15:00,1.850,R,ugm-3 (FIDAS),28.88776,R,ugm-3,1.109,R,ugm-3 (Ref.eq)
06-01-2021,16:00,2.225,R,ugm-3 (FIDAS),17.21291,R,ugm-3,1.533,R,ugm-3 (Ref.eq)
06-01-2021,17:00,15.950,R,ugm-3 (FIDAS),8.43183,R,ugm-3,14.576,R,ugm-3 (Ref.eq)
06-01-2021,18:00,12.375,R,ugm-3 (FIDAS),8.08259,R,ugm-3,11.226,R,ugm-3 (Ref.eq)
06-01-2021,19:00,11.300,R,ugm-3 (FIDAS),4.78968,R,ugm-3,10.472,R,ugm-3 (Ref.eq)
06-01-2021,20:00,6.400,R,ugm-3 (FIDAS),1.89592,R,ugm-3,5.755,R,ugm-3 (Ref.eq)
06-01-2021,21:00,8.125,R,ugm-3 (FIDAS),9.52947,R,ugm-3,7.264,R,ugm-3 (Ref.eq)
06-01-2021,22:00,4.900,R,ugm-3 (FIDAS),12.47313,R,ugm-3,4.316,R,ugm-3 (Ref.eq)
06-01-2021,23:00,5.575,R,ugm-3 (FIDAS),24.14797,R,ugm-3,4.788,R,ugm-3 (Ref.eq)
06-01-2021,24:00,7.925,R,ugm-3 (FIDAS),38.86626,R,ugm-3,7.193,R,ugm-3 (Ref.eq)
07-01-2021,01:00,5.725,R,ugm-3 (FIDAS),35.39041,R,ugm-3,5.189,R,ugm-3 (Ref.eq)
07-01-2021,02:00,3.175,R,ugm-3 (FIDAS),34.99127,R,ugm-3,2.854,R,ugm-3 (Ref.eq)
07-01-2021,03:00,1.475,R,ugm-3 (FIDAS),30.28475,R,ugm-3,1.274,R,ugm-3 (Ref.eq)
07-01-2021,04:00,1.400,R,ugm-3 (FIDAS),23.94840,R,ugm-3,1.203,R,ugm-3 (Ref.eq)
07-01-2021,05:00,0.950,R,ugm-3 (FIDAS),18.16087,R,ugm-3,0.731,R,ugm-3 (Ref.eq)
07-01-2021,06:00,1.275,R,ugm-3 (FIDAS),15.61635,R,ugm-3,0.920,R,ugm-3 (Ref.eq)
07-01-2021,07:00,2.500,R,ugm-3 (FIDAS),19.65765,R,ugm-3,1.415,R,ugm-3 (Ref.eq)
07-01-2021,08:00,3.075,R,ugm-3 (FIDAS),32.28045,R,ugm-3,1.887,R,ugm-3 (Ref.eq)
07-01-2021,09:00,3.050,R,ugm-3 (FIDAS),35.42368,R,ugm-3,1.910,R,ugm-3 (Ref.eq)
07-01-2021,10:00,1.800,R,ugm-3 (FIDAS),36.02239,R,ugm-3,1.226,R,ugm-3 (Ref.eq)
07-01-2021,11:00,2.575,R,ugm-3 (FIDAS),38.11787,R,ugm-3,1.580,R,ugm-3 (Ref.eq)
07-01-2021,12:00,7.375,R,ugm-3 (FIDAS),49.94239,R,ugm-3,3.443,R,ugm-3 (Ref.eq)
07-01-2021,13:00,10.400,R,ugm-3 (FIDAS),56.07917,R,ugm-3,5.354,R,ugm-3 (Ref.eq)
07-01-2021,14:00,6.275,R,ugm-3 (FIDAS),58.37423,R,ugm-3,3.349,R,ugm-3 (Ref.eq)
07-01-2021,15:00,10.025,R,ugm-3 (FIDAS),62.36563,R,ugm-3,5.519,R,ugm-3 (Ref.eq)
07-01-2021,16:00,7.150,R,ugm-3 (FIDAS),53.43487,R,ugm-3,3.750,R,ugm-3 (Ref.eq)
07-01-2021,17:00,4.175,R,ugm-3 (FIDAS),30.68389,R,ugm-3,2.524,R,ugm-3 (Ref.eq)
07-01-2021,18:00,10.575,R,ugm-3 (FIDAS),25.19571,R,ugm-3,8.679,R,ugm-3 (Ref.eq)
07-01-2021,19:00,10.125,R,ugm-3 (FIDAS),25.59485,R,ugm-3,8.538,R,ugm-3 (Ref.eq)
07-01-2021,20:00,5.550,R,ugm-3 (FIDAS),45.30239,R,ugm-3,4.151,R,ugm-3 (Ref.eq)
07-01-2021,21:00,3.850,R,ugm-3 (FIDAS),45.90110,R,ugm-3,2.995,R,ugm-3 (Ref.eq)
07-01-2021,22:00,4.900,R,ugm-3 (FIDAS),56.27874,R,ugm-3,3.561,R,ugm-3 (Ref.eq)
07-01-2021,23:00,7.250,R,ugm-3 (FIDAS),52.88605,R,ugm-3,4.670,R,ugm-3 (Ref.eq)
07-01-2021,24:00,9.725,R,ugm-3 (FIDAS),39.96389,R,ugm-3,6.651,R,ugm-3 (Ref.eq)
08-01-2021,01:00,7.750,R,ugm-3 (FIDAS),54.81523,R,ugm-3,4.033,R,ugm-3 (Ref.eq)
08-01-2021,02:00,6.775,R,ugm-3 (FIDAS),68.11989,R,ugm-3,2.925,R,ugm-3 (Ref.eq)
08-01-2021,03:00,5.025,R,ugm-3 (FIDAS),71.59574,R,ugm-3,2.406,R,ugm-3 (Ref.eq)
08-01-2021,04:00,5.075,R,ugm-3 (FIDAS),71.64563,R,ugm-3,2.359,R,ugm-3 (Ref.eq)
08-01-2021,05:00,3.625,R,ugm-3 (FIDAS),71.89509,R,ugm-3,1.722,R,ugm-3 (Ref.eq)
08-01-2021,06:00,2.750,R,ugm-3 (FIDAS),69.10111,R,ugm-3,1.462,R,ugm-3 (Ref.eq)
08-01-2021,07:00,2.550,R,ugm-3 (FIDAS),47.74712,R,ugm-3,1.297,R,ugm-3 (Ref.eq)
08-01-2021,08:00,3.400,R,ugm-3 (FIDAS),46.99874,R,ugm-3,1.698,R,ugm-3 (Ref.eq)
08-01-2021,09:00,3.125,R,ugm-3 (FIDAS),26.34324,R,ugm-3,1.439,R,ugm-3 (Ref.eq)
08-01-2021,10:00,4.100,R,ugm-3 (FIDAS),34.32604,R,ugm-3,1.651,R,ugm-3 (Ref.eq)
08-01-2021,11:00,5.100,R,ugm-3 (FIDAS),59.87100,R,ugm-3,2.005,R,ugm-3 (Ref.eq)
08-01-2021,12:00,5.400,R,ugm-3 (FIDAS),56.57810,R,ugm-3,2.075,R,ugm-3 (Ref.eq)
08-01-2021,13:00,5.775,R,ugm-3 (FIDAS),68.95144,R,ugm-3,2.193,R,ugm-3 (Ref.eq)
08-01-2021,14:00,6.025,R,ugm-3 (FIDAS),61.61724,R,ugm-3,2.406,R,ugm-3 (Ref.eq)
08-01-2021,15:00,5.550,R,ugm-3 (FIDAS),62.11616,R,ugm-3,2.264,R,ugm-3 (Ref.eq)
08-01-2021,16:00,4.475,R,ugm-3 (FIDAS),27.49077,R,ugm-3,1.887,R,ugm-3 (Ref.eq)
08-01-2021,17:00,3.700,R,ugm-3 (FIDAS),24.64690,R,ugm-3,1.934,R,ugm-3 (Ref.eq)
08-01-2021,18:00,16.400,R,ugm-3 (FIDAS),21.70324,R,ugm-3,13.892,R,ugm-3 (Ref.eq)
08-01-2021,19:00,11.800,R,ugm-3 (FIDAS),21.00474,R,ugm-3,10.142,R,ugm-3 (Ref.eq)
08-01-2021,20:00,12.650,R,ugm-3 (FIDAS),20.25636,R,ugm-3,10.778,R,ugm-3 (Ref.eq)
08-01-2021,21:00,7.425,R,ugm-3 (FIDAS),13.12173,R,ugm-3,6.156,R,ugm-3 (Ref.eq)
08-01-2021,22:00,9.500,R,ugm-3 (FIDAS),19.00904,R,ugm-3,8.349,R,ugm-3 (Ref.eq)
08-01-2021,23:00,5.050,R,ugm-3 (FIDAS),20.85507,R,ugm-3,3.962,R,ugm-3 (Ref.eq)
08-01-2021,24:00,3.250,R,ugm-3 (FIDAS),21.80302,R,ugm-3,2.335,R,ugm-3 (Ref.eq)
09-01-2021,01:00,2.275,R,ugm-3 (FIDAS),17.36259,R,ugm-3,1.580,R,ugm-3 (Ref.eq)
09-01-2021,02:00,1.650,R,ugm-3 (FIDAS),18.82610,R,ugm-3,0.991,R,ugm-3 (Ref.eq)
09-01-2021,03:00,2.000,R,ugm-3 (FIDAS),21.35399,R,ugm-3,1.156,R,ugm-3 (Ref.eq)
09-01-2021,04:00,2.350,R,ugm-3 (FIDAS),23.59915,R,ugm-3,1.368,R,ugm-3 (Ref.eq)
09-01-2021,05:00,2.400,R,ugm-3 (FIDAS),22.90066,R,ugm-3,1.557,R,ugm-3 (Ref.eq)
09-01-2021,06:00,2.800,R,ugm-3 (FIDAS),30.73378,R,ugm-3,1.792,R,ugm-3 (Ref.eq)
09-01-2021,07:00,2.650,R,ugm-3 (FIDAS),24.64690,R,ugm-3,1.509,R,ugm-3 (Ref.eq)
09-01-2021,08:00,2.025,R,ugm-3 (FIDAS),18.70969,R,ugm-3,1.179,R,ugm-3 (Ref.eq)
09-01-2021,09:00,1.650,R,ugm-3 (FIDAS),21.45378,R,ugm-3,0.920,R,ugm-3 (Ref.eq)
09-01-2021,10:00,1.600,R,ugm-3 (FIDAS),17.01334,R,ugm-3,0.873,R,ugm-3 (Ref.eq)
09-01-2021,11:00,1.825,R,ugm-3 (FIDAS),44.75357,R,ugm-3,1.132,R,ugm-3 (Ref.eq)
09-01-2021,12:00,5.675,R,ugm-3 (FIDAS),49.34368,R,ugm-3,4.599,R,ugm-3 (Ref.eq)
09-01-2021,13:00,2.900,R,ugm-3 (FIDAS),56.72777,R,ugm-3,1.887,R,ugm-3 (Ref.eq)
09-01-2021,14:00,2.875,R,ugm-3 (FIDAS),57.92519,R,ugm-3,1.792,R,ugm-3 (Ref.eq)
09-01-2021,15:00,6.100,R,ugm-3 (FIDAS),54.33293,R,ugm-3,5.472,R,ugm-3 (Ref.eq)
09-01-2021,16:00,7.825,R,ugm-3 (FIDAS),51.08992,R,ugm-3,7.146,R,ugm-3 (Ref.eq)
09-01-2021,17:00,10.375,R,ugm-3 (FIDAS),43.65594,R,ugm-3,9.623,R,ugm-3 (Ref.eq)
09-01-2021,18:00,16.125,R,ugm-3 (FIDAS),41.66024,R,ugm-3,14.811,R,ugm-3 (Ref.eq)
09-01-2021,19:00,6.875,R,ugm-3 (FIDAS),37.26970,R,ugm-3,6.344,R,ugm-3 (Ref.eq)
09-01-2021,20:00,12.375,R,ugm-3 (FIDAS),37.41938,R,ugm-3,11.462,R,ugm-3 (Ref.eq)
09-01-2021,21:00,12.625,R,ugm-3 (FIDAS),32.03099,R,ugm-3,11.439,R,ugm-3 (Ref.eq)
09-01-2021,22:00,10.950,R,ugm-3 (FIDAS),24.19786,R,ugm-3,10.118,R,ugm-3 (Ref.eq)
09-01-2021,23:00,6.000,R,ugm-3 (FIDAS),28.58840,R,ugm-3,5.448,R,ugm-3 (Ref.eq)
09-01-2021,24:00,7.500,R,ugm-3 (FIDAS),30.88346,R,ugm-3,6.698,R,ugm-3 (Ref.eq)
10-01-2021,01:00,11.500,R,ugm-3 (FIDAS),38.84963,R,ugm-3,10.259,R,ugm-3 (Ref.eq)
10-01-2021,02:00,9.800,R,ugm-3 (FIDAS),41.84318,R,ugm-3,8.609,R,ugm-3 (Ref.eq)
10-01-2021,03:00,3.525,R,ugm-3 (FIDAS),42.40863,R,ugm-3,3.019,R,ugm-3 (Ref.eq)
10-01-2021,04:00,2.675,R,ugm-3 (FIDAS),39.21551,R,ugm-3,2.123,R,ugm-3 (Ref.eq)
10-01-2021,05:00,2.050,R,ugm-3 (FIDAS),31.93120,R,ugm-3,1.486,R,ugm-3 (Ref.eq)
10-01-2021,06:00,1.300,R,ugm-3 (FIDAS),44.50411,R,ugm-3,0.873,R,ugm-3 (Ref.eq)
10-01-2021,07:00,0.700,R,ugm-3 (FIDAS),44.75357,R,ugm-3,0.472,R,ugm-3 (Ref.eq)
10-01-2021,08:00,0.525,R,ugm-3 (FIDAS),43.95529,R,ugm-3,0.354,R,ugm-3 (Ref.eq)
10-01-2021,09:00,0.650,R,ugm-3 (FIDAS),44.65379,R,ugm-3,0.283,R,ugm-3 (Ref.eq)
10-01-2021,10:00,0.675,R,ugm-3 (FIDAS),43.65594,R,ugm-3,0.283,R,ugm-3 (Ref.eq)
10-01-2021,11:00,0.400,R,ugm-3 (FIDAS),44.90325,R,ugm-3,0.212,R,ugm-3 (Ref.eq)
10-01-2021,12:00,0.300,R,ugm-3 (FIDAS),44.25465,R,ugm-3,0.236,R,ugm-3 (Ref.eq)
10-01-2021,13:00,4.400,R,ugm-3 (FIDAS),68.00348,R,ugm-3,2.759,R,ugm-3 (Ref.eq)
10-01-2021,14:00,6.100,R,ugm-3 (FIDAS),70.94714,R,ugm-3,3.066,R,ugm-3 (Ref.eq)
10-01-2021,15:00,4.200,R,ugm-3 (FIDAS),65.70842,R,ugm-3,2.123,R,ugm-3 (Ref.eq)
10-01-2021,16:00,8.550,R,ugm-3 (FIDAS),65.30928,R,ugm-3,6.816,R,ugm-3 (Ref.eq)
10-01-2021,17:00,6.025,R,ugm-3 (FIDAS),65.20950,R,ugm-3,4.811,R,ugm-3 (Ref.eq)
10-01-2021,18:00,4.175,R,ugm-3 (FIDAS),68.90154,R,ugm-3,2.123,R,ugm-3 (Ref.eq)
10-01-2021,19:00,3.675,R,ugm-3 (FIDAS),67.70412,R,ugm-3,2.075,R,ugm-3 (Ref.eq)
10-01-2021,20:00,4.125,R,ugm-3 (FIDAS),62.11616,R,ugm-3,3.066,R,ugm-3 (Ref.eq)
10-01-2021,21:00,4.925,R,ugm-3 (FIDAS),59.32218,R,ugm-3,4.175,R,ugm-3 (Ref.eq)
10-01-2021,22:00,8.375,R,ugm-3 (FIDAS),61.81681,R,ugm-3,6.486,R,ugm-3 (Ref.eq)
10-01-2021,23:00,3.500,R,ugm-3 (FIDAS),64.51100,R,ugm-3,2.476,R,ugm-3 (Ref.eq)
10-01-2021,24:00,2.975,R,ugm-3 (FIDAS),63.96219,R,ugm-3,1.934,R,ugm-3 (Ref.eq)
11-01-2021,01:00,4.050,R,ugm-3 (FIDAS),66.25724,R,ugm-3,2.241,R,ugm-3 (Ref.eq)
11-01-2021,02:00,2.025,R,ugm-3 (FIDAS),62.79803,R,ugm-3,1.203,R,ugm-3 (Ref.eq)
11-01-2021,03:00,0.950,R,ugm-3 (FIDAS),58.87315,R,ugm-3,0.566,R,ugm-3 (Ref.eq)
11-01-2021,04:00,2.250,R,ugm-3 (FIDAS),68.45251,R,ugm-3,1.038,R,ugm-3 (Ref.eq)
11-01-2021,05:00,2.925,R,ugm-3 (FIDAS),68.65208,R,ugm-3,1.486,R,ugm-3 (Ref.eq)
11-01-2021,06:00,1.350,R,ugm-3 (FIDAS),60.86885,R,ugm-3,0.825,R,ugm-3 (Ref.eq)
11-01-2021,07:00,0.800,R,ugm-3 (FIDAS),60.91874,R,ugm-3,0.377,R,ugm-3 (Ref.eq)
11-01-2021,08:00,0.450,R,ugm-3 (FIDAS),60.86885,R,ugm-3,0.118,R,ugm-3 (Ref.eq)
11-01-2021,09:00,0.475,R,ugm-3 (FIDAS),62.76477,R,ugm-3,0.142,R,ugm-3 (Ref.eq)
11-01-2021,10:00,0.575,R,ugm-3 (FIDAS),65.35918,R,ugm-3,0.212,R,ugm-3 (Ref.eq)
11-01-2021,11:00,0.350,R,ugm-3 (FIDAS),71.29638,R,ugm-3,0.212,R,ugm-3 (Ref.eq)
11-01-2021,12:00,0.350,R,ugm-3 (FIDAS),71.79531,R,ugm-3,0.212,R,ugm-3 (Ref.eq)
11-01-2021,13:00,0.475,R,ugm-3 (FIDAS),71.64563,R,ugm-3,0.236,R,ugm-3 (Ref.eq)
11-01-2021,14:00,1.275,R,ugm-3 (FIDAS),70.64778,R,ugm-3,0.967,R,ugm-3 (Ref.eq)
11-01-2021,15:00,1.100,R,ugm-3 (FIDAS),70.74757,R,ugm-3,0.637,R,ugm-3 (Ref.eq)
11-01-2021,16:00,2.875,R,ugm-3 (FIDAS),72.39402,R,ugm-3,1.958,R,ugm-3 (Ref.eq)
11-01-2021,17:00,3.550,R,ugm-3 (FIDAS),70.39832,R,ugm-3,2.736,R,ugm-3 (Ref.eq)
11-01-2021,18:00,1.375,R,ugm-3 (FIDAS),72.64348,R,ugm-3,0.731,R,ugm-3 (Ref.eq)
11-01-2021,19:00,1.000,R,ugm-3 (FIDAS),71.19660,R,ugm-3,0.566,R,ugm-3 (Ref.eq)
11-01-2021,20:00,1.675,R,ugm-3 (FIDAS),71.84520,R,ugm-3,1.132,R,ugm-3 (Ref.eq)
11-01-2021,21:00,2.975,R,ugm-3 (FIDAS),71.19660,R,ugm-3,2.241,R,ugm-3 (Ref.eq)
11-01-2021,22:00,1.325,R,ugm-3 (FIDAS),67.20520,R,ugm-3,0.590,R,ugm-3 (Ref.eq)
11-01-2021,23:00,1.050,R,ugm-3 (FIDAS),67.35488,R,ugm-3,0.566,R,ugm-3 (Ref.eq)
11-01-2021,24:00,2.225,R,ugm-3 (FIDAS),62.96434,R,ugm-3,1.486,R,ugm-3 (Ref.eq)
12-01-2021,01:00,2.725,R,ugm-3 (FIDAS),53.68433,R,ugm-3,1.321,R,ugm-3 (Ref.eq)
12-01-2021,02:00,2.750,R,ugm-3 (FIDAS),37.91830,R,ugm-3,1.486,R,ugm-3 (Ref.eq)
12-01-2021,03:00,2.225,R,ugm-3 (FIDAS),41.06153,R,ugm-3,1.344,R,ugm-3 (Ref.eq)
12-01-2021,04:00,2.675,R,ugm-3 (FIDAS),49.64304,R,ugm-3,1.344,R,ugm-3 (Ref.eq)
12-01-2021,05:00,1.575,R,ugm-3 (FIDAS),66.30713,R,ugm-3,0.896,R,ugm-3 (Ref.eq)
12-01-2021,06:00,5.650,R,ugm-3 (FIDAS),66.05767,R,ugm-3,2.665,R,ugm-3 (Ref.eq)
12-01-2021,07:00,7.725,R,ugm-3 (FIDAS),62.21595,R,ugm-3,3.208,R,ugm-3 (Ref.eq)
12-01-2021,08:00,5.850,R,ugm-3 (FIDAS),54.83186,R,ugm-3,2.453,R,ugm-3 (Ref.eq)
12-01-2021,09:00,5.200,R,ugm-3 (FIDAS),34.32604,R,ugm-3,1.816,R,ugm-3 (Ref.eq)
12-01-2021,10:00,5.475,R,ugm-3 (FIDAS),16.91356,R,ugm-3,1.580,R,ugm-3 (Ref.eq)
12-01-2021,11:00,3.525,R,ugm-3 (FIDAS),21.25421,R,ugm-3,1.509,R,ugm-3 (Ref.eq)
12-01-2021,12:00,5.475,R,ugm-3 (FIDAS),53.43487,R,ugm-3,2.123,R,ugm-3 (Ref.eq)
12-01-2021,13:00,4.675,R,ugm-3 (FIDAS),54.23315,R,ugm-3,2.005,R,ugm-3 (Ref.eq)
12-01-2021,14:00,5.000,R,ugm-3 (FIDAS),50.59100,R,ugm-3,2.311,R,ugm-3 (Ref.eq)
12-01-2021,15:00,5.125,R,ugm-3 (FIDAS),47.54755,R,ugm-3,2.359,R,ugm-3 (Ref.eq)
12-01-2021,16:00,4.975,R,ugm-3 (FIDAS),43.95529,R,ugm-3,2.618,R,ugm-3 (Ref.eq)
12-01-2021,17:00,6.875,R,ugm-3 (FIDAS),37.12002,R,ugm-3,4.292,R,ugm-3 (Ref.eq)
12-01-2021,18:00,5.275,R,ugm-3 (FIDAS),33.17851,R,ugm-3,3.373,R,ugm-3 (Ref.eq)
12-01-2021,19:00,7.300,R,ugm-3 (FIDAS),36.22196,R,ugm-3,5.495,R,ugm-3 (Ref.eq)
12-01-2021,20:00,5.550,R,ugm-3 (FIDAS),40.56260,R,ugm-3,4.151,R,ugm-3 (Ref.eq)
12-01-2021,21:00,4.975,R,ugm-3 (FIDAS),43.55615,R,ugm-3,3.939,R,ugm-3 (Ref.eq)
12-01-2021,22:00,6.700,R,ugm-3 (FIDAS),42.40863,R,ugm-3,5.637,R,ugm-3 (Ref.eq)
12-01-2021,23:00,9.025,R,ugm-3 (FIDAS),35.57335,R,ugm-3,7.948,R,ugm-3 (Ref.eq)
12-01-2021,24:00,8.400,R,ugm-3 (FIDAS),29.13722,R,ugm-3,7.524,R,ugm-3 (Ref.eq)
13-01-2021,01:00,8.225,R,ugm-3 (FIDAS),29.13722,R,ugm-3,7.406,R,ugm-3 (Ref.eq)
13-01-2021,02:00,7.200,R,ugm-3 (FIDAS),26.34324,R,ugm-3,6.651,R,ugm-3 (Ref.eq)
13-01-2021,03:00,6.775,R,ugm-3 (FIDAS),24.39743,R,ugm-3,6.085,R,ugm-3 (Ref.eq)
13-01-2021,04:00,6.525,R,ugm-3 (FIDAS),19.55786,R,ugm-3,5.802,R,ugm-3 (Ref.eq)
13-01-2021,05:00,4.500,R,ugm-3 (FIDAS),20.40603,R,ugm-3,3.561,R,ugm-3 (Ref.eq)
13-01-2021,06:00,1.550,R,ugm-3 (FIDAS),38.66669,R,ugm-3,0.920,R,ugm-3 (Ref.eq)
13-01-2021,07:00,1.600,R,ugm-3 (FIDAS),40.81207,R,ugm-3,0.873,R,ugm-3 (Ref.eq)
13-01-2021,08:00,1.200,R,ugm-3 (FIDAS),52.28734,R,ugm-3,0.425,R,ugm-3 (Ref.eq)
13-01-2021,09:00,0.750,R,ugm-3 (FIDAS),59.87100,R,ugm-3,0.307,R,ugm-3 (Ref.eq)
13-01-2021,10:00,0.625,R,ugm-3 (FIDAS),63.96219,R,ugm-3,0.212,R,ugm-3 (Ref.eq)
13-01-2021,11:00,0.450,R,ugm-3 (FIDAS),59.22240,R,ugm-3,0.189,R,ugm-3 (Ref.eq)